| time (UTC) | temp F | wind direction | speed MPH | gust MPH | rain 1hr in | rain 24hr in | rain mn in | humidity % | barometer mb |
| 20260506061600 | 55 | 0.0 | 1.0 | 0.00 | 0.03 | 0.01 | 90 | 1006.4 | |
| 20260506060558 | 54 | 70 | 0.0 | 2.0 | 0.00 | 0.03 | 0.01 | 91 | 1006.4 |
| 20260506050600 | 50 | 0.0 | 0.0 | 0.00 | 0.03 | 0.01 | 99 | 1006.9 | |
| 20260506044533 | 48 | 0.0 | 0.0 | 0.00 | 0.03 | 0.01 | 99 | 1006.5 | |
| 20260506043553 | 48 | 75 | 0.0 | 1.0 | 0.00 | 0.03 | 0.01 | 99 | 1006.5 |
| 20260506042534 | 48 | 108 | 0.0 | 1.0 | 0.00 | 0.03 | 0.01 | 99 | 1006.7 |
| 20260506041536 | 48 | 0.0 | 0.0 | 0.00 | 0.03 | 0.01 | 99 | 1006.8 | |
| 20260506040614 | 48 | 124 | 0.0 | 1.0 | 0.00 | 0.03 | 0.01 | 99 | 1006.8 |
| 20260506035536 | 48 | 60 | 0.0 | 1.0 | 0.00 | 0.03 | 0.01 | 99 | 1006.8 |
| 20260506034535 | 49 | 0.0 | 0.0 | 0.00 | 0.03 | 0.01 | 99 | 1006.8 | |
| 20260506033536 | 49 | 0.0 | 0.0 | 0.00 | 0.03 | 0.01 | 99 | 1006.8 | |
| 20260506032557 | 49 | 0.0 | 0.0 | 0.00 | 0.03 | 0.01 | 99 | 1007.0 | |
| 20260506031931 | 49 | 0.0 | 0.0 | 0.00 | 0.03 | 0.01 | 99 | 1007.2 | |
| 20260506030538 | 49 | 0.0 | 0.0 | 0.00 | 0.03 | 0.01 | 99 | 1007.4 | |
| 20260506025539 | 49 | 0.0 | 0.0 | 0.00 | 0.03 | 0.01 | 99 | 1007.5 | |
| 20260506024539 | 49 | 0.0 | 0.0 | 0.00 | 0.03 | 0.01 | 99 | 1007.7 | |
| 20260506023539 | 49 | 0.0 | 0.0 | 0.00 | 0.03 | 0.01 | 99 | 1007.7 | |
| 20260506022559 | 49 | 0.0 | 0.0 | 0.00 | 0.03 | 0.01 | 99 | 1007.6 | |
| 20260506021538 | 49 | 0.0 | 0.0 | 0.00 | 0.03 | 0.01 | 99 | 1007.5 | |
| 20260506020538 | 49 | 0.0 | 0.0 | 0.00 | 0.03 | 0.01 | 99 | 1007.4 | |
| 20260506015538 | 49 | 0.0 | 0.0 | 0.00 | 0.03 | 0.01 | 99 | 1007.6 | |
| 20260506014540 | 49 | 0.0 | 0.0 | 0.00 | 0.03 | 0.01 | 99 | 1007.6 | |
| 20260506013539 | 49 | 0.0 | 0.0 | 0.00 | 0.03 | 0.01 | 99 | 1007.8 | |
| 20260506012540 | 49 | 0.0 | 0.0 | 0.00 | 0.03 | 0.01 | 99 | 1007.9 | |
| 20260506011600 | 49 | 0.0 | 0.0 | 0.00 | 0.03 | 0.01 | 99 | 1007.8 | |
| 20260506010541 | 50 | 0.0 | 0.0 | 0.00 | 0.03 | 0.01 | 99 | 1007.7 | |
| 20260506005541 | 50 | 0.0 | 0.0 | 0.00 | 0.03 | 0.01 | 99 | 1007.6 | |
| 20260506004541 | 51 | 0.0 | 0.0 | 0.00 | 0.03 | 0.01 | 99 | 1007.8 | |
| 20260506003542 | 51 | 0.0 | 0.0 | 0.00 | 0.03 | 0.01 | 99 | 1007.9 | |
| 20260506002602 | 52 | 0.0 | 0.0 | 0.00 | 0.03 | 0.01 | 99 | 1007.8 | |
| 20260506001603 | 52 | 0.0 | 0.0 | 0.00 | 0.03 | 0.01 | 99 | 1008.0 | |
| 20260506000543 | 52 | 0.0 | 0.0 | 0.00 | 0.03 | 0.01 | 98 | 1008.1 | |
| 20260505235603 | 52 | 0.0 | 1.0 | 0.00 | 0.03 | 0.01 | 98 | 1008.1 | |
| 20260505234545 | 52 | 0.0 | 0.0 | 0.00 | 0.03 | 0.01 | 98 | 1008.1 | |
| 20260505233545 | 52 | 0.0 | 0.0 | 0.00 | 0.03 | 0.01 | 98 | 1008.3 | |
| 20260505232545 | 52 | 125 | 0.0 | 2.0 | 0.00 | 0.03 | 0.01 | 97 | 1008.3 |
| 20260505231545 | 52 | 0.0 | 1.0 | 0.01 | 0.03 | 0.01 | 96 | 1008.4 | |
| 20260505230546 | 52 | 151 | 0.0 | 2.0 | 0.01 | 0.03 | 0.01 | 96 | 1008.3 |
| 20260505225547 | 53 | 132 | 0.0 | 2.0 | 0.01 | 0.03 | 0.01 | 96 | 1008.3 |
| 20260505224546 | 53 | 179 | 1.0 | 5.0 | 0.01 | 0.03 | 0.01 | 96 | 1008.3 |
| 20260505223548 | 53 | 132 | 1.0 | 3.0 | 0.02 | 0.03 | 0.01 | 97 | 1008.4 |
| 20260505222547 | 54 | 99 | 1.0 | 5.0 | 0.02 | 0.03 | 0.01 | 96 | 1008.6 |
| 20260505221548 | 54 | 180 | 2.0 | 6.0 | 0.01 | 0.02 | 0.00 | 96 | 1008.7 |
| 20260505220548 | 54 | 210 | 2.0 | 6.0 | 0.02 | 0.02 | 0.00 | 96 | 1008.9 |
| 20260505215549 | 54 | 194 | 2.0 | 5.0 | 0.02 | 0.02 | 0.02 | 97 | 1008.9 |
| 20260505214549 | 54 | 195 | 2.0 | 5.0 | 0.02 | 0.02 | 0.02 | 95 | 1008.8 |
| 20260505213549 | 54 | 160 | 2.0 | 6.0 | 0.01 | 0.01 | 0.01 | 94 | 1008.6 |
| 20260505212550 | 54 | 181 | 1.0 | 5.0 | 0.01 | 0.01 | 0.01 | 94 | 1008.6 |
| 20260505211551 | 55 | 169 | 1.0 | 5.0 | 0.01 | 0.01 | 0.01 | 91 | 1008.6 |
| 20260505210551 | 56 | 268 | 2.0 | 7.0 | 0.00 | 0.00 | 0.00 | 87 | 1008.5 |
| 20260505205552 | 58 | 233 | 4.0 | 9.0 | 0.00 | 0.00 | 0.00 | 81 | 1008.2 |
| 20260505204551 | 58 | 188 | 2.0 | 9.0 | 0.00 | 0.00 | 0.00 | 80 | 1008.1 |
| 20260505203552 | 58 | 216 | 3.0 | 9.0 | 0.00 | 0.00 | 0.00 | 81 | 1007.9 |
| 20260505202552 | 58 | 163 | 2.0 | 7.0 | 0.00 | 0.00 | 0.00 | 81 | 1007.7 |
| 20260505201553 | 57 | 109 | 1.0 | 2.0 | 0.00 | 0.00 | 0.00 | 82 | 1007.3 |
| 20260505200553 | 57 | 0.0 | 0.0 | 0.00 | 0.00 | 0.00 | 84 | 1007.0 | |
| 20260505195633 | 58 | 116 | 0.0 | 1.0 | 0.00 | 0.00 | 0.00 | 84 | 1006.9 |
| 20260505194554 | 58 | 156 | 1.0 | 3.0 | 0.00 | 0.00 | 0.00 | 82 | 1006.5 |
| 20260505193615 | 59 | 152 | 0.0 | 2.0 | 0.00 | 0.00 | 0.00 | 83 | 1006.4 |
| 20260505192554 | 59 | 163 | 1.0 | 3.0 | 0.00 | 0.00 | 0.00 | 81 | 1006.2 |
| 20260505191555 | 59 | 54 | 1.0 | 3.0 | 0.00 | 0.00 | 0.00 | 80 | 1005.8 |
| 20260505190555 | 59 | 94 | 0.0 | 2.0 | 0.00 | 0.00 | 0.00 | 84 | 1006.1 |
| 20260505185616 | 58 | 30 | 0.0 | 3.0 | 0.00 | 0.00 | 0.00 | 84 | 1006.2 |
| 20260505184556 | 59 | 139 | 0.0 | 2.0 | 0.00 | 0.00 | 0.00 | 85 | 1006.2 |
| 20260505183557 | 59 | 128 | 0.0 | 2.0 | 0.00 | 0.00 | 0.00 | 83 | 1005.8 |
| 20260505182617 | 59 | 19 | 1.0 | 3.0 | 0.00 | 0.00 | 0.00 | 81 | 1005.5 |
| 20260505181559 | 60 | 47 | 1.0 | 3.0 | 0.00 | 0.00 | 0.00 | 80 | 1005.3 |
| 20260505180558 | 60 | 100 | 0.0 | 2.0 | 0.00 | 0.00 | 0.00 | 78 | 1005.2 |
| 20260505175558 | 61 | 136 | 0.0 | 2.0 | 0.00 | 0.00 | 0.00 | 78 | 1005.0 |
| 20260505174559 | 61 | 97 | 0.0 | 3.0 | 0.00 | 0.00 | 0.00 | 78 | 1005.0 |
| 20260505173620 | 62 | 84 | 1.0 | 2.0 | 0.00 | 0.00 | 0.00 | 77 | 1004.9 |
| 20260505172620 | 61 | 28 | 2.0 | 5.0 | 0.00 | 0.00 | 0.00 | 77 | 1004.9 |
| 20260505171600 | 62 | 73 | 1.0 | 3.0 | 0.00 | 0.00 | 0.00 | 76 | 1004.9 |
| 20260505170601 | 62 | 42 | 2.0 | 6.0 | 0.00 | 0.00 | 0.00 | 73 | 1004.8 |
| 20260505165601 | 63 | 28 | 2.0 | 5.0 | 0.00 | 0.00 | 0.00 | 71 | 1005.0 |
| 20260505164601 | 64 | 76 | 1.0 | 6.0 | 0.00 | 0.00 | 0.00 | 71 | 1005.0 |
| 20260505163602 | 63 | 23 | 2.0 | 5.0 | 0.00 | 0.00 | 0.00 | 72 | 1004.7 |
| 20260505162603 | 63 | 20 | 2.0 | 3.0 | 0.00 | 0.00 | 0.00 | 72 | 1004.9 |
| 20260505161603 | 63 | 39 | 1.0 | 5.0 | 0.00 | 0.00 | 0.00 | 72 | 1005.0 |
| 20260505160603 | 62 | 66 | 1.0 | 5.0 | 0.00 | 0.00 | 0.00 | 74 | 1004.9 |
| 20260505152533 | 62 | 51 | 1.0 | 6.0 | 0.00 | 0.00 | 0.00 | 75 | 1005.4 |
| 20260505151533 | 62 | 52 | 2.0 | 5.0 | 0.00 | 0.00 | 0.00 | 76 | 1005.5 |
| 20260505150533 | 63 | 101 | 1.0 | 3.0 | 0.00 | 0.00 | 0.00 | 74 | 1005.6 |
| 20260505140536 | 68 | 229 | 4.0 | 10.0 | 0.00 | 0.00 | 0.00 | 55 | 1005.1 |
| 20260505124620 | 76 | 349 | 0.0 | 2.0 | 0.00 | 0.00 | 0.00 | 38 | 1004.7 |
| 20260505123540 | 76 | 108 | 1.0 | 2.0 | 0.00 | 0.00 | 0.00 | 38 | 1004.7 |
| 20260505122540 | 75 | 60 | 1.0 | 3.0 | 0.00 | 0.00 | 0.00 | 39 | 1004.8 |
| 20260505121601 | 75 | 59 | 3.0 | 6.0 | 0.00 | 0.00 | 0.00 | 38 | 1004.8 |
| 20260505120621 | 76 | 43 | 2.0 | 6.0 | 0.00 | 0.00 | 0.00 | 37 | 1004.9 |
| 20260505115541 | 77 | 179 | 1.0 | 3.0 | 0.00 | 0.00 | 0.00 | 35 | 1005.0 |
| 20260505114602 | 75 | 84 | 1.0 | 3.0 | 0.00 | 0.00 | 0.00 | 35 | 1005.0 |
| 20260505113542 | 74 | 107 | 3.0 | 5.0 | 0.00 | 0.00 | 0.00 | 37 | 1005.1 |
| 20260505112543 | 75 | 101 | 2.0 | 6.0 | 0.00 | 0.00 | 0.00 | 35 | 1005.3 |
| 20260505111543 | 75 | 85 | 2.0 | 6.0 | 0.00 | 0.00 | 0.00 | 37 | 1005.3 |
| 20260505110544 | 74 | 54 | 2.0 | 6.0 | 0.00 | 0.00 | 0.00 | 41 | 1005.5 |
| 20260505101606 | 74 | 74 | 3.0 | 6.0 | 0.00 | 0.00 | 0.00 | 45 | 1006.3 |
| 20260505100546 | 74 | 182 | 1.0 | 3.0 | 0.00 | 0.00 | 0.00 | 42 | 1006.3 |
| 20260505095607 | 73 | 125 | 1.0 | 3.0 | 0.00 | 0.00 | 0.00 | 41 | 1006.5 |
| 20260505094608 | 72 | 133 | 1.0 | 3.0 | 0.00 | 0.00 | 0.00 | 49 | 1006.5 |
| 20260505093547 | 71 | 62 | 1.0 | 3.0 | 0.00 | 0.00 | 0.00 | 50 | 1006.6 |
| 20260505092547 | 72 | 93 | 1.0 | 5.0 | 0.00 | 0.00 | 0.00 | 51 | 1007.1 |
| 20260505091548 | 72 | 129 | 1.0 | 3.0 | 0.00 | 0.00 | 0.00 | 48 | 1007.1 |
| 20260505090548 | 71 | 151 | 1.0 | 3.0 | 0.00 | 0.00 | 0.00 | 48 | 1007.1 |
| 20260505085550 | 69 | 95 | 1.0 | 3.0 | 0.00 | 0.00 | 0.00 | 54 | 1007.2 |
| 20260505084549 | 71 | 53 | 1.0 | 2.0 | 0.00 | 0.00 | 0.00 | 55 | 1007.2 |
| 20260505083551 | 70 | 53 | 1.0 | 3.0 | 0.00 | 0.00 | 0.00 | 58 | 1007.2 |
| 20260505082550 | 68 | 117 | 1.0 | 3.0 | 0.00 | 0.00 | 0.00 | 59 | 1007.5 |
| 20260505081551 | 68 | 104 | 1.0 | 2.0 | 0.00 | 0.00 | 0.00 | 63 | 1007.6 |
| 20260505080551 | 65 | 136 | 0.0 | 1.0 | 0.00 | 0.00 | 0.00 | 67 | 1007.7 |
| 20260505075552 | 64 | 74 | 0.0 | 1.0 | 0.00 | 0.00 | 0.00 | 71 | 1007.7 |
| 20260505074552 | 64 | 72 | 1.0 | 2.0 | 0.00 | 0.00 | 0.00 | 71 | 1007.8 |
| 20260505073612 | 64 | 69 | 0.0 | 1.0 | 0.00 | 0.00 | 0.00 | 70 | 1007.8 |
| 20260505072554 | 64 | 109 | 0.0 | 2.0 | 0.00 | 0.00 | 0.00 | 71 | 1007.9 |
| 20260505071553 | 64 | 21 | 1.0 | 2.0 | 0.00 | 0.00 | 0.00 | 70 | 1008.0 |
| 20260505070554 | 63 | 69 | 0.0 | 2.0 | 0.00 | 0.00 | 0.00 | 72 | 1008.1 |